Address 0x742d35cc6634c0532925a3b844bc454e4438f44e 10

 
Txn Hash Method
Block
From
To
Value [Txn Fee]
0x9c12644a6f36e719811204b89335d295b9391dba3264cf549819f60b2638d1eeTransfer220595312021-12-02 18:48:302 mins ago0xf63724c70bf94b7ceefa0bc8e2de5948eded0800 IN 0x742d35cc6634c0532925a3b844bc454e4438f44e4,417.34901 MATIC0.0063
0xfbde673db7e86d002e14154871f9c6b76ab50bb843402ec8a8782dfc99053b0bTransfer220580982021-12-02 17:58:3152 mins ago0xf63724c70bf94b7ceefa0bc8e2de5948eded0800 IN 0x742d35cc6634c0532925a3b844bc454e4438f44e1,614.0023 MATIC0.0063
0x25558d53026aca0f56a291eeae873feb08c8aafd12a93a9e8cbc8b378e0b8ec1Transfer220577252021-12-02 17:43:331 hr 7 mins ago0xf63724c70bf94b7ceefa0bc8e2de5948eded0800 IN 0x742d35cc6634c0532925a3b844bc454e4438f44e7,002.87918 MATIC0.0063
0x4ac143d7c808a740d2e56ec2c2571012911de53df13ceefe741effb4bafdcaa0Transfer220575812021-12-02 17:38:371 hr 12 mins ago0xf63724c70bf94b7ceefa0bc8e2de5948eded0800 IN 0x742d35cc6634c0532925a3b844bc454e4438f44e2,362.70325 MATIC0.0063
0x8581af0cf08409af1bf784cb0439d835295fe482031c1cf82fb9b189470e12c0Transfer220571412021-12-02 17:23:291 hr 27 mins ago0xf63724c70bf94b7ceefa0bc8e2de5948eded0800 IN 0x742d35cc6634c0532925a3b844bc454e4438f44e4,270.01258 MATIC0.0063
0x80699b960a915fb93b7eb1f42303cf1cc5f0a6ca321c3f6ff3c83cefaad287a7Transfer220569962021-12-02 17:18:311 hr 32 mins ago0xf63724c70bf94b7ceefa0bc8e2de5948eded0800 IN 0x742d35cc6634c0532925a3b844bc454e4438f44e4,718.07349 MATIC0.0063
0x531dda0de5746c744bd8abf3eb50ce66176255536f7fd331ab07021f399d0bb3Transfer220568512021-12-02 17:13:311 hr 37 mins ago0xf63724c70bf94b7ceefa0bc8e2de5948eded0800 IN 0x742d35cc6634c0532925a3b844bc454e4438f44e1,621.42475 MATIC0.0063
0x68a6f5596eede4928cd6291bb66e4d1b158aed2b961c431f65cc68c7bf218776Transfer220565682021-12-02 17:03:311 hr 47 mins ago0xf63724c70bf94b7ceefa0bc8e2de5948eded0800 IN 0x742d35cc6634c0532925a3b844bc454e4438f44e9,151.09075 MATIC0.0063
0x6b59e4592dc4739aa8100b42262928bdefdd0bd08e53fd4c8fa8ce639fd44a6dTransfer220564772021-12-02 16:58:311 hr 52 mins ago0xf63724c70bf94b7ceefa0bc8e2de5948eded0800 IN 0x742d35cc6634c0532925a3b844bc454e4438f44e274.64341 MATIC0.0063
0xfd93928efa5674e07cee4f66114f44180c063bcdbc6d0f251df82a2ac24fc81aTransfer220563312021-12-02 16:53:311 hr 57 mins ago0xf63724c70bf94b7ceefa0bc8e2de5948eded0800 IN 0x742d35cc6634c0532925a3b844bc454e4438f44e1,604.81061 MATIC0.0063
0xc9c206a6865aa5d82ffaa929695e24041673caf2755ad804306c5236e5efaa2eTransfer220556052021-12-02 16:28:312 hrs 22 mins ago0xf63724c70bf94b7ceefa0bc8e2de5948eded0800 IN 0x742d35cc6634c0532925a3b844bc454e4438f44e3,433.50061 MATIC0.0063
0xbe11401baf55fb2794a6b0f52d3de198edacd2dd2df9a20cc1c04d25a7ba4243Transfer220554602021-12-02 16:23:312 hrs 27 mins ago0xf63724c70bf94b7ceefa0bc8e2de5948eded0800 IN 0x742d35cc6634c0532925a3b844bc454e4438f44e12,853.85538 MATIC0.0063
0x2e7ff60e9e126cf770890792320f966d920e7031a044106719518df1cf6a1329Transfer220534242021-12-02 15:13:303 hrs 37 mins ago0xf63724c70bf94b7ceefa0bc8e2de5948eded0800 IN 0x742d35cc6634c0532925a3b844bc454e4438f44e2,997.08042 MATIC0.0063
0xa6ef4e01e88af87e72fdf74551dac76c259158428fb3a8f07ee2eefc427f80f4Transfer220532782021-12-02 15:08:303 hrs 42 mins ago0xf63724c70bf94b7ceefa0bc8e2de5948eded0800 IN 0x742d35cc6634c0532925a3b844bc454e4438f44e1,092.87055 MATIC0.0063
0x6cd8f6325223624e4d8daafcb353595efa001b3dfdc6331c4b4e61677e84a469Transfer220531322021-12-02 15:03:303 hrs 47 mins ago0xf63724c70bf94b7ceefa0bc8e2de5948eded0800 IN 0x742d35cc6634c0532925a3b844bc454e4438f44e11,123.01513 MATIC0.0063
0x4e357ed207f8c7ecd425a7e1abedeb89094c684cd50631899860aab5968b30cbTransfer220528422021-12-02 14:53:303 hrs 57 mins ago0xf63724c70bf94b7ceefa0bc8e2de5948eded0800 IN 0x742d35cc6634c0532925a3b844bc454e4438f44e12,252.19957 MATIC0.0063
0xb2e262e9d57ea5fcf6f969523a5f6079a233e0722d4809f82db43013a428bd07Transfer220526982021-12-02 14:48:334 hrs 2 mins ago0xf63724c70bf94b7ceefa0bc8e2de5948eded0800 IN 0x742d35cc6634c0532925a3b844bc454e4438f44e10,120.41794 MATIC0.0063
0xed3507e9085e39e24b4979ece4c547c3fb11a5fe20a7ac2f6ade68f244de999bTransfer220525532021-12-02 14:43:354 hrs 7 mins ago0xf63724c70bf94b7ceefa0bc8e2de5948eded0800 IN 0x742d35cc6634c0532925a3b844bc454e4438f44e7,102.98265 MATIC0.0063
0xbbc0ad69892895af4adc2f4b54a9e6e72369162b813964a1466d1087aeca7a7aTransfer220521152021-12-02 14:28:314 hrs 22 mins ago0xf63724c70bf94b7ceefa0bc8e2de5948eded0800 IN 0x742d35cc6634c0532925a3b844bc454e4438f44e228.43582 MATIC0.0063
0x907ff1a48e84b21cdfaf7143d515492d22dd91d6b04c7a35227df33f07b83e94Transfer220519682021-12-02 14:23:294 hrs 27 mins ago0xf63724c70bf94b7ceefa0bc8e2de5948eded0800 IN 0x742d35cc6634c0532925a3b844bc454e4438f44e50,610.00374 MATIC0.0063
0x0c3a8a10d4a365df6dc808d99f79b4ae0da3656165d93ba937bd616139c168bdWithdraw220452692021-12-02 10:08:198 hrs 42 mins ago0x742d35cc6634c0532925a3b844bc454e4438f44eOUT Polygon: MATIC Token10 MATIC0.00094821
0x0006b090d4e82ca4680e1b3f99bcab871bce08a2b0a962b0733912e4143fc0e3Transfer220440482021-12-02 9:13:319 hrs 37 mins ago0xf63724c70bf94b7ceefa0bc8e2de5948eded0800 IN 0x742d35cc6634c0532925a3b844bc454e4438f44e86,463.27479 MATIC0.0063
0x968548b62ba5a866f5c81e54f83f9f95a750ca9bb2ed780b2710d3d65f8ccbb5Transfer220364992021-12-02 4:13:3014 hrs 37 mins ago0xf63724c70bf94b7ceefa0bc8e2de5948eded0800 IN 0x742d35cc6634c0532925a3b844bc454e4438f44e1,824.85134 MATIC0.0063
0xe468ec1a414999b5191df6562308bc88d79a26608393896be325e816a40bf114Transfer220363762021-12-02 4:08:3614 hrs 42 mins ago0xf63724c70bf94b7ceefa0bc8e2de5948eded0800 IN 0x742d35cc6634c0532925a3b844bc454e4438f44e140,133.31276 MATIC0.0063
0x9d6248a966accad5a2d20adcde2b656f8f40c7c29361f2a886ea7316058c6c9dTransfer220349012021-12-02 3:13:3015 hrs 37 mins ago0xf63724c70bf94b7ceefa0bc8e2de5948eded0800 IN 0x742d35cc6634c0532925a3b844bc454e4438f44e185,358.30738 MATIC0.0063
[ Download CSV Export 
Parent Txn Hash Block From To Value
Loading

Contract Name:
0 MATIC

Compiler Version
0

Optimization Enabled:
0 MATIC

Other Settings:
-NA-
Block Transaction Gas Used Reward
Age Block Fee Address BC Fee Address Voting Power Jailed Incoming
Block Uncle Number Difficulty Gas Used Reward
Loading
Loading
Make sure to use the "Vote Down" button for any spammy posts, and the "Vote Up" for interesting conversations.